| time (UTC) | temp F | wind direction | speed knots | gust knots | rain 1hr in | rain 24hr in | rain mn in | humidity % | barometer mb |
| 20260504081546 | 67 | 44 | 1.7 | 4.3 | 0.00 | 0.02 | 0.02 | 84 | 1013.9 |
| 20260504044543 | 68 | 22 | 1.7 | 4.3 | 0.00 | 0.02 | 0.02 | 77 | 1013.4 |
| 20260504043036 | 68 | 24 | 1.7 | 3.5 | 0.00 | 0.02 | 0.02 | 77 | 1013.6 |
| 20260504041534 | 69 | 29 | 0.0 | 2.6 | 0.00 | 0.02 | 0.02 | 80 | 1013.5 |
| 20260504040034 | 67 | 39 | 0.0 | 2.6 | 0.00 | 0.02 | 0.02 | 82 | 1013.8 |
| 20260504034552 | 67 | 20 | 1.7 | 3.5 | 0.00 | 0.02 | 0.02 | 82 | 1014.0 |
| 20260504033030 | 67 | 35 | 0.0 | 3.5 | 0.01 | 0.02 | 0.02 | 82 | 1014.3 |
| 20260504031529 | 67 | 10 | 0.0 | 3.5 | 0.01 | 0.02 | 0.02 | 82 | 1014.4 |
| 20260504030040 | 67 | 360 | 0.9 | 4.3 | 0.02 | 0.02 | 0.02 | 83 | 1014.7 |
| 20260504024528 | 67 | 330 | 0.9 | 2.6 | 0.02 | 0.02 | 0.02 | 84 | 1015.0 |
| 20260504023027 | 67 | 344 | 0.9 | 4.3 | 0.02 | 0.02 | 0.02 | 82 | 1015.2 |
| 20260504021526 | 68 | 325 | 1.7 | 6.1 | 0.02 | 0.02 | 0.02 | 81 | 1015.5 |
| 20260504020026 | 69 | 314 | 1.7 | 5.2 | 0.01 | 0.01 | 0.01 | 79 | 1015.7 |
| 20260504014536 | 70 | 10 | 0.0 | 2.6 | 0.00 | 0.00 | 0.00 | 77 | 1016.0 |
| 20260504013025 | 70 | 10 | 0.9 | 2.6 | 0.00 | 0.00 | 0.00 | 75 | 1016.0 |
| 20260504011524 | 70 | 10 | 0.0 | 2.6 | 0.00 | 0.00 | 0.00 | 74 | 1016.3 |
| 20260504010028 | 71 | 38 | 0.0 | 3.5 | 0.00 | 0.00 | 0.00 | 74 | 1016.4 |
| 20260504004524 | 72 | 41 | 1.7 | 5.2 | 0.00 | 0.00 | 0.00 | 70 | 1016.1 |
| 20260504003030 | 72 | 41 | 0.9 | 3.5 | 0.00 | 0.00 | 0.00 | 73 | 1016.1 |
| 20260504001519 | 71 | 16 | 0.0 | 3.5 | 0.00 | 0.00 | 0.00 | 79 | 1016.2 |
| 20260504000015 | 70 | 47 | 0.9 | 4.3 | 0.00 | 0.00 | 0.00 | 82 | 1016.2 |
| 20260503234529 | 69 | 46 | 2.6 | 5.2 | 0.00 | 0.00 | 0.00 | 81 | 1016.2 |
| 20260503233012 | 69 | 10 | 1.7 | 4.3 | 0.00 | 0.00 | 0.00 | 80 | 1016.1 |
| 20260503231513 | 69 | 54 | 0.9 | 5.2 | 0.00 | 0.00 | 0.00 | 79 | 1016.4 |
| 20260503230009 | 69 | 58 | 2.6 | 5.2 | 0.00 | 0.00 | 0.00 | 78 | 1016.2 |
| 20260503224508 | 69 | 62 | 1.7 | 7.0 | 0.00 | 0.00 | 0.00 | 79 | 1016.1 |
| 20260503223005 | 69 | 59 | 2.6 | 5.2 | 0.00 | 0.00 | 0.00 | 81 | 1015.9 |
| 20260503221504 | 68 | 18 | 2.6 | 6.1 | 0.00 | 0.00 | 0.00 | 80 | 1015.7 |
| 20260503220002 | 68 | 25 | 1.7 | 7.0 | 0.00 | 0.00 | 0.00 | 80 | 1015.6 |
| 20260503214501 | 66 | 5 | 2.6 | 7.0 | 0.00 | 0.00 | 0.00 | 84 | 1015.5 |
| 20260503213112 | 65 | 37 | 3.5 | 5.2 | 0.00 | 0.00 | 0.00 | 86 | 1015.4 |
| 20260503211600 | 65 | 36 | 1.7 | 4.3 | 0.00 | 0.00 | 0.00 | 87 | 1015.4 |
| 20260503210201 | 64 | 27 | 0.9 | 5.2 | 0.00 | 0.00 | 0.00 | 87 | 1015.2 |
| 20260503204609 | 63 | 39 | 1.7 | 3.5 | 0.00 | 0.00 | 0.00 | 87 | 1015.2 |
| 20260503203105 | 63 | 40 | 1.7 | 3.5 | 0.00 | 0.00 | 0.00 | 88 | 1014.9 |
| 20260503201603 | 63 | 46 | 0.9 | 3.5 | 0.00 | 0.00 | 0.00 | 88 | 1014.9 |
| 20260503200101 | 63 | 49 | 0.9 | 3.5 | 0.00 | 0.00 | 0.00 | 89 | 1014.8 |
| 20260503194556 | 63 | 51 | 0.0 | 2.6 | 0.00 | 0.00 | 0.00 | 89 | 1014.7 |
| 20260503193100 | 62 | 20 | 0.0 | 1.7 | 0.00 | 0.00 | 0.00 | 88 | 1014.6 |
| 20260503191615 | 62 | 19 | 0.0 | 3.5 | 0.00 | 0.00 | 0.00 | 88 | 1014.6 |
| 20260503190055 | 63 | 18 | 0.0 | 2.6 | 0.00 | 0.00 | 0.00 | 87 | 1014.6 |
| 20260503184558 | 63 | 33 | 0.9 | 3.5 | 0.00 | 0.00 | 0.00 | 87 | 1014.6 |
| 20260503183110 | 63 | 78 | 0.9 | 2.6 | 0.00 | 0.00 | 0.00 | 87 | 1014.6 |
| 20260503181550 | 63 | 10 | 0.9 | 3.5 | 0.00 | 0.00 | 0.00 | 88 | 1014.4 |
| 20260503180049 | 63 | 54 | 0.9 | 3.5 | 0.00 | 0.00 | 0.00 | 87 | 1014.5 |
| 20260503174545 | 64 | 42 | 0.9 | 2.6 | 0.00 | 0.00 | 0.00 | 86 | 1014.5 |
| 20260503173108 | 64 | 41 | 0.0 | 3.5 | 0.00 | 0.00 | 0.00 | 86 | 1014.8 |
| 20260503171542 | 65 | 60 | 0.9 | 2.6 | 0.00 | 0.00 | 0.00 | 85 | 1014.9 |